When you browse on this site, cookies collect data to enhance your experience and personalize the content and advertising you see.
Visit our Privacy Policy to learn more. By continuing to use the site, you agree to this use of cookies and data.
  • In Romania
  • List of Countries
  • For 7 days
  • Water Temperature
  • Weather Map
  • Weather Widgets
  • user-avatar
    Login

    Hourly Weather Sydney

    Today, 14 December, Saturday

    Time Temperature Precipitation Wind Pressure Humidity
    00:00 +20°C° 0 mm 2 mps 759 mmHg 76%
    01:00 +19°C° 0 mm 2 mps 759 mmHg 79%
    02:00 +19°C° 0.1 mm 2 mps 758 mmHg 82%
    03:00 +18°C° 0.1 mm 2 mps 758 mmHg 85%
    04:00 +18°C° 0 mm 1 mps 757 mmHg 88%
    05:00 +20°C° 0 mm 1 mps 758 mmHg 81%
    06:00 +21°C° 0 mm 1 mps 758 mmHg 74%
    07:00 +23°C° 0 mm 1 mps 758 mmHg 68%
    08:00 +25°C° 0 mm 2 mps 758 mmHg 59%
    09:00 +28°C° 0 mm 2 mps 757 mmHg 50%
    10:00 +30°C° 0 mm 2 mps 757 mmHg 40%
    11:00 +31°C° 0 mm 3 mps 756 mmHg 38%
    12:00 +33°C° 0 mm 4 mps 756 mmHg 35%
    13:00 +34°C° 0 mm 6 mps 755 mmHg 32%
    14:00 +32°C° 0 mm 6 mps 755 mmHg 40%
    15:00 +30°C° 0 mm 6 mps 754 mmHg 48%
    16:00 +28°C° 0 mm 6 mps 754 mmHg 55%
    17:00 +27°C° 0 mm 5 mps 755 mmHg 63%
    18:00 +25°C° 0 mm 4 mps 756 mmHg 71%
    19:00 +24°C° 0 mm 3 mps 756 mmHg 79%
    20:00 +22°C° 0.3 mm 3 mps 757 mmHg 81%
    21:00 +22°C° 0.3 mm 3 mps 758 mmHg 83%
    22:00 +21°C° 0.3 mm 3 mps 758 mmHg 86%
    23:00 +21°C° 0.3 mm 3 mps 758 mmHg 87%

    Tomorrow, 15 December, Sunday

    Time Temperature Precipitation Wind Pressure Humidity
    00:00 +20°C° 0.3 mm 3 mps 758 mmHg 88%
    01:00 +20°C° 0.3 mm 4 mps 757 mmHg 89%
    02:00 +20°C° 0.1 mm 3 mps 757 mmHg 89%
    03:00 +20°C° 0.1 mm 3 mps 757 mmHg 89%
    04:00 +20°C° 0.1 mm 3 mps 757 mmHg 89%
    05:00 +20°C° 0.1 mm 3 mps 757 mmHg 88%
    06:00 +21°C° 0.1 mm 2 mps 757 mmHg 86%
    07:00 +21°C° 0.1 mm 2 mps 757 mmHg 84%
    08:00 +24°C° 0 mm 2 mps 757 mmHg 73%
    09:00 +26°C° 0 mm 1 mps 757 mmHg 62%
    10:00 +29°C° 0 mm 1 mps 757 mmHg 50%
    11:00 +30°C° 0 mm 2 mps 756 mmHg 45%
    12:00 +31°C° 0 mm 3 mps 755 mmHg 39%
    13:00 +34°C° 0 mm 4 mps 754 mmHg 34%
    14:00 +33°C° 0 mm 4 mps 754 mmHg 40%
    15:00 +30°C° 0 mm 5 mps 753 mmHg 45%
    16:00 +29°C° 0 mm 5 mps 753 mmHg 51%
    17:00 +28°C° 0 mm 5 mps 753 mmHg 59%
    18:00 +26°C° 0 mm 5 mps 753 mmHg 66%
    19:00 +25°C° 0 mm 4 mps 754 mmHg 74%
    20:00 +23°C° 0 mm 4 mps 754 mmHg 77%
    21:00 +24°C° 0 mm 3 mps 754 mmHg 80%
    22:00 +22°C° 0 mm 3 mps 755 mmHg 82%
    23:00 +22°C° 0 mm 3 mps 754 mmHg 82%

    Day after tomorrow, 16 December, Monday

    Time Temperature Precipitation Wind Pressure Humidity
    00:00 +21°C° 0 mm 3 mps 754 mmHg 81%
    01:00 +21°C° 0 mm 2 mps 753 mmHg 80%
    02:00 +21°C° 0 mm 3 mps 754 mmHg 69%
    03:00 +20°C° 0 mm 4 mps 754 mmHg 57%
    04:00 +20°C° 0 mm 5 mps 754 mmHg 46%
    05:00 +21°C° 0 mm 6 mps 755 mmHg 52%
    06:00 +22°C° 0 mm 7 mps 755 mmHg 58%
    07:00 +23°C° 0 mm 8 mps 756 mmHg 64%
    08:00 +23°C° 0 mm 8 mps 757 mmHg 62%
    09:00 +23°C° 0 mm 8 mps 757 mmHg 61%
    10:00 +23°C° 0 mm 7 mps 758 mmHg 59%
    11:00 +24°C° 0 mm 7 mps 758 mmHg 56%
    12:00 +26°C° 0 mm 7 mps 758 mmHg 53%
    13:00 +26°C° 0 mm 7 mps 758 mmHg 50%
    14:00 +26°C° 0 mm 7 mps 758 mmHg 51%
    15:00 +24°C° 0 mm 6 mps 759 mmHg 53%
    16:00 +24°C° 0 mm 6 mps 759 mmHg 55%
    17:00 +23°C° 0 mm 5 mps 760 mmHg 58%
    18:00 +22°C° 0 mm 5 mps 761 mmHg 61%
    19:00 +21°C° 0 mm 4 mps 762 mmHg 65%
    20:00 +20°C° 0 mm 4 mps 762 mmHg 67%
    21:00 +20°C° 0 mm 4 mps 763 mmHg 70%
    22:00 +19°C° 0 mm 3 mps 764 mmHg 73%
    23:00 +19°C° 0 mm 3 mps 763 mmHg 71%

    17 December, Tuesday

    Time Temperature Precipitation Wind Pressure Humidity
    00:00 +19°C° 0 mm 2 mps 763 mmHg 69%
    01:00 +19°C° 0 mm 2 mps 763 mmHg 66%
    02:00 +18°C° 0 mm 2 mps 763 mmHg 69%
    03:00 +18°C° 0 mm 2 mps 763 mmHg 72%
    04:00 +17°C° 0 mm 2 mps 763 mmHg 75%
    05:00 +18°C° 0 mm 2 mps 763 mmHg 68%
    06:00 +20°C° 0 mm 2 mps 763 mmHg 61%
    07:00 +23°C° 0 mm 2 mps 764 mmHg 54%
    08:00 +24°C° 0 mm 2 mps 764 mmHg 49%
    09:00 +25°C° 0 mm 3 mps 764 mmHg 44%
    10:00 +27°C° 0 mm 3 mps 764 mmHg 39%
    11:00 +27°C° 0 mm 4 mps 764 mmHg 38%
    12:00 +27°C° 0 mm 4 mps 763 mmHg 37%
    13:00 +28°C° 0 mm 4 mps 763 mmHg 36%
    14:00 +27°C° 0 mm 5 mps 763 mmHg 38%
    15:00 +26°C° 0 mm 5 mps 763 mmHg 40%
    16:00 +26°C° 0 mm 5 mps 763 mmHg 41%
    17:00 +23°C° 0 mm 4 mps 763 mmHg 47%
    18:00 +22°C° 0 mm 4 mps 764 mmHg 52%
    19:00 +21°C° 0 mm 3 mps 764 mmHg 58%
    20:00 +20°C° 0 mm 3 mps 765 mmHg 62%
    21:00 +19°C° 0 mm 3 mps 765 mmHg 66%
    22:00 +18°C° 0 mm 3 mps 765 mmHg 70%
    23:00 +18°C° 0 mm 2 mps 765 mmHg 72%

    18 December, Wednesday

    Time Temperature Precipitation Wind Pressure Humidity
    00:00 +17°C° 0 mm 2 mps 765 mmHg 74%
    01:00 +17°C° 0 mm 2 mps 764 mmHg 77%
    02:00 +16°C° 0 mm 2 mps 764 mmHg 79%
    03:00 +16°C° 0 mm 2 mps 764 mmHg 81%
    04:00 +15°C° 0 mm 2 mps 764 mmHg 82%
    05:00 +17°C° 0 mm 2 mps 764 mmHg 74%
    06:00 +19°C° 0 mm 2 mps 764 mmHg 65%
    07:00 +21°C° 0 mm 2 mps 764 mmHg 56%
    08:00 +25°C° 0 mm 3 mps 763 mmHg 47%
    09:00 +27°C° 0 mm 4 mps 763 mmHg 38%
    10:00 +30°C° 0 mm 5 mps 763 mmHg 28%
    11:00 +33°C° 0 mm 6 mps 762 mmHg 27%
    12:00 +34°C° 0 mm 7 mps 761 mmHg 26%
    13:00 +36°C° 0 mm 7 mps 760 mmHg 24%
    14:00 +35°C° 0 mm 8 mps 760 mmHg 29%
    15:00 +33°C° 0 mm 8 mps 759 mmHg 33%
    16:00 +32°C° 0 mm 9 mps 758 mmHg 38%
    17:00 +29°C° 0 mm 8 mps 759 mmHg 45%
    18:00 +27°C° 0 mm 8 mps 759 mmHg 51%
    19:00 +24°C° 0 mm 8 mps 759 mmHg 58%
    20:00 +23°C° 0 mm 7 mps 760 mmHg 63%
    21:00 +22°C° 0 mm 6 mps 760 mmHg 68%
    22:00 +21°C° 0 mm 5 mps 760 mmHg 74%
    23:00 +21°C° 0 mm 4 mps 759 mmHg 74%

    19 December, Thursday

    Time Temperature Precipitation Wind Pressure Humidity
    00:00 +21°C° 0 mm 4 mps 759 mmHg 75%
    01:00 +20°C° 0 mm 3 mps 758 mmHg 76%
    02:00 +20°C° 0 mm 3 mps 758 mmHg 75%
    03:00 +20°C° 0 mm 3 mps 758 mmHg 75%
    04:00 +20°C° 0 mm 3 mps 758 mmHg 74%
    05:00 +22°C° 0 mm 3 mps 758 mmHg 62%
    06:00 +26°C° 0 mm 3 mps 758 mmHg 50%
    07:00 +28°C° 0 mm 3 mps 758 mmHg 37%
    08:00 +34°C° 0 mm 3 mps 758 mmHg 29%
    09:00 +38°C° 0 mm 3 mps 758 mmHg 21%
    10:00 +44°C° 0 mm 4 mps 758 mmHg 13%
    11:00 +47°C° 0 mm 4 mps 757 mmHg 12%
    12:00 +48°C° 0 mm 4 mps 757 mmHg 10%
    13:00 +50°C° 0 mm 5 mps 756 mmHg 9%
    14:00 +45°C° 0 mm 7 mps 757 mmHg 18%
    15:00 +38°C° 0 mm 9 mps 757 mmHg 27%
    16:00 +31°C° 0 mm 11 mps 757 mmHg 36%
    17:00 +29°C° 0 mm 10 mps 759 mmHg 42%
    18:00 +27°C° 0 mm 8 mps 760 mmHg 48%
    19:00 +24°C° 0 mm 7 mps 762 mmHg 54%
    20:00 +23°C° 0 mm 7 mps 762 mmHg 59%
    21:00 +22°C° 0 mm 7 mps 763 mmHg 63%
    22:00 +21°C° 0 mm 6 mps 764 mmHg 67%
    23:00 +21°C° 0 mm 6 mps 764 mmHg 71%
    Show more